Simultaneous Nadir Overpasses (SNOs) Predictions

Prediction of SNOs between METOP-B and TERRA Satellite Orbit:

Table of predicted SNOs for the next 14.0 days since TLE Epoch: 1/19/2019
Index Date (METOP-B) Time (METOP-B) Lat,Lon (METOP-B) SZA (METOP-B ) Date (TERRA) Time (TERRA) Lat,Lon (TERRA) SZA (TERRA ) Distance(km) Time Diff (sec)
1 01/21/2019 10:22:33 81.28, 71.13 103.50 01/21/2019 10:23:24 81.28, 71.11 103.52 0.31 51
2 01/21/2019 11:13:13 -81.29,-121.07 76.46 01/21/2019 11:12:50 -81.30,-120.98 76.45 1.75 23
3 01/24/2019 05:56:57 81.28, 137.33 102.82 01/24/2019 05:57:38 81.27, 137.36 102.83 0.95 41
4 01/24/2019 06:47:37 -81.28, -54.83 77.14 01/24/2019 06:47:04 -81.29, -54.70 77.14 2.18 33
5 01/27/2019 01:31:21 81.28,-156.08 102.13 01/27/2019 01:31:52 81.28,-156.04 102.14 0.69 31
6 01/27/2019 02:22:01 -81.29, 11.79 77.83 01/27/2019 02:21:18 -81.30, 11.93 77.82 2.57 43
7 01/29/2019 21:05:45 81.28, -89.50 101.40 01/29/2019 21:06:06 81.29, -89.47 101.41 0.62 21
8 01/29/2019 21:56:26 -81.29, 78.00 78.60 01/29/2019 21:55:33 -81.28, 78.14 78.61 2.34 53
9 02/01/2019 16:40:08 81.29, -22.93 100.63 02/01/2019 16:40:19 81.29, -22.94 100.63 0.77 11




NCC Satellite Simultaneous Nadir Overpasses (SNOs) Prediction Service
